| time (UTC) | temp F | wind direction | speed MPH | gust MPH | rain 1hr in | rain 24hr in | rain mn in | humidity % | barometer mb |
| 20260831134606 | 78 | 117 | 0.0 | 3.0 | 0.00 | 0.00 | 0.00 | 94 | 1020.5 |
| 20260831134058 | 78 | 0 | 1.0 | 3.0 | 0.00 | 0.00 | 0.00 | 91 | 1020.5 |
| 20260831133558 | 77 | 0 | 0.0 | 4.0 | 0.00 | 0.00 | 0.00 | 92 | 1020.6 |
| 20260831133104 | 77 | 0 | 1.0 | 4.0 | 0.00 | 0.00 | 0.00 | 92 | 1020.5 |
| 20260831132556 | 77 | 78 | 0.0 | 3.0 | 0.00 | 0.00 | 0.00 | 92 | 1020.5 |
| 20260831132055 | 77 | 142 | 1.0 | 4.0 | 0.00 | 0.00 | 0.00 | 92 | 1020.3 |
| 20260831131614 | 77 | 94 | 1.0 | 4.0 | 0.00 | 0.00 | 0.00 | 92 | 1020.2 |
| 20260831131058 | 76 | 110 | 1.0 | 3.0 | 0.00 | 0.00 | 0.00 | 92 | 1020.3 |
| 20260831130558 | 76 | 103 | 0.0 | 1.0 | 0.00 | 0.00 | 0.00 | 93 | 1020.2 |
| 20260831130112 | 76 | 0 | 0.0 | 5.0 | 0.00 | 0.00 | 0.00 | 94 | 1020.2 |
| 20260831125559 | 75 | 91 | 1.0 | 5.0 | 0.00 | 0.00 | 0.00 | 95 | 1020.2 |
| 20260831125059 | 75 | 0 | 1.0 | 4.0 | 0.00 | 0.00 | 0.00 | 95 | 1020.3 |
| 20260831124609 | 74 | 97 | 1.0 | 4.0 | 0.00 | 0.00 | 0.00 | 95 | 1020.3 |
| 20260831124055 | 74 | 0 | 0.0 | 3.0 | 0.00 | 0.00 | 0.00 | 95 | 1020.2 |
| 20260831123555 | 74 | 0 | 0.0 | 3.0 | 0.00 | 0.00 | 0.00 | 96 | 1020.1 |
| 20260831123103 | 74 | 94 | 0.0 | 2.0 | 0.00 | 0.00 | 0.00 | 96 | 1020.0 |
| 20260831122559 | 74 | 0 | 0.0 | 6.0 | 0.00 | 0.00 | 0.00 | 96 | 1020.0 |
| 20260831122059 | 74 | 91 | 0.0 | 6.0 | 0.00 | 0.00 | 0.00 | 96 | 1019.9 |
| 20260831121609 | 73 | 0 | 0.0 | 3.0 | 0.00 | 0.00 | 0.00 | 96 | 1019.8 |
| 20260831121059 | 73 | 0 | 0.0 | 3.0 | 0.00 | 0.00 | 0.00 | 97 | 1019.8 |
| 20260831120558 | 73 | 110 | 0.0 | 3.0 | 0.00 | 0.00 | 0.00 | 97 | 1019.6 |
| 20260831120109 | 73 | 110 | 0.0 | 2.0 | 0.00 | 0.00 | 0.00 | 97 | 1019.4 |
| 20260831115600 | 73 | 0 | 0.0 | 2.0 | 0.00 | 0.00 | 0.00 | 97 | 1019.5 |
| 20260831115059 | 73 | 0 | 0.0 | 1.0 | 0.00 | 0.00 | 0.00 | 97 | 1019.4 |
| 20260831114603 | 72 | 155 | 0.0 | 1.0 | 0.00 | 0.00 | 0.00 | 97 | 1019.3 |
| 20260831114058 | 72 | 0 | 0.0 | 1.0 | 0.00 | 0.00 | 0.00 | 97 | 1019.3 |
| 20260831113555 | 72 | 105 | 0.0 | 1.0 | 0.00 | 0.00 | 0.00 | 97 | 1019.2 |
| 20260831113103 | 72 | 0 | 0.0 | 2.0 | 0.00 | 0.00 | 0.00 | 97 | 1019.1 |
| 20260831112554 | 72 | 0 | 0.0 | 2.0 | 0.00 | 0.00 | 0.00 | 97 | 1019.1 |
| 20260831112055 | 72 | 0 | 0.0 | 2.0 | 0.00 | 0.00 | 0.00 | 97 | 1019.1 |
| 20260831111606 | 72 | 0 | 0.0 | 2.0 | 0.00 | 0.00 | 0.00 | 97 | 1019.0 |
| 20260831111058 | 72 | 0 | 0.0 | 2.0 | 0.00 | 0.00 | 0.00 | 97 | 1018.9 |
| 20260831110558 | 72 | 0 | 0.0 | 1.0 | 0.00 | 0.00 | 0.00 | 97 | 1018.8 |
| 20260831110107 | 73 | 0 | 0.0 | 1.0 | 0.00 | 0.00 | 0.00 | 97 | 1018.7 |
| 20260831105558 | 73 | 0 | 0.0 | 2.0 | 0.00 | 0.00 | 0.00 | 97 | 1018.6 |
| 20260831105059 | 73 | 89 | 0.0 | 2.0 | 0.00 | 0.00 | 0.00 | 97 | 1018.6 |
| 20260831104611 | 73 | 0 | 0.0 | 1.0 | 0.00 | 0.00 | 0.00 | 97 | 1018.6 |
| 20260831104056 | 73 | 0 | 0.0 | 1.0 | 0.00 | 0.00 | 0.00 | 97 | 1018.6 |
| 20260831103555 | 73 | 0 | 0.0 | 1.0 | 0.00 | 0.00 | 0.00 | 97 | 1018.7 |
| 20260831103105 | 73 | 0 | 0.0 | 1.0 | 0.00 | 0.00 | 0.00 | 97 | 1018.6 |
| 20260831102558 | 73 | 0 | 0.0 | 1.0 | 0.00 | 0.00 | 0.00 | 97 | 1018.7 |
| 20260831102059 | 73 | 0 | 0.0 | 1.0 | 0.00 | 0.00 | 0.00 | 97 | 1018.6 |
| 20260831101604 | 73 | 0 | 0.0 | 2.0 | 0.00 | 0.00 | 0.00 | 97 | 1018.5 |
| 20260831101056 | 73 | 0 | 0.0 | 2.0 | 0.00 | 0.00 | 0.00 | 97 | 1018.4 |
| 20260831100559 | 73 | 0 | 0.0 | 2.0 | 0.00 | 0.00 | 0.00 | 97 | 1018.4 |
| 20260831100127 | 73 | 97 | 0.0 | 2.0 | 0.00 | 0.00 | 0.00 | 97 | 1018.3 |
| 20260831095556 | 73 | 0 | 0.0 | 2.0 | 0.00 | 0.00 | 0.00 | 97 | 1018.4 |
| 20260831095058 | 73 | 0 | 0.0 | 1.0 | 0.00 | 0.00 | 0.00 | 97 | 1018.4 |
| 20260831094602 | 73 | 94 | 0.0 | 1.0 | 0.00 | 0.00 | 0.00 | 97 | 1018.3 |
| 20260831094058 | 73 | 0 | 0.0 | 1.0 | 0.00 | 0.00 | 0.00 | 97 | 1018.4 |
| 20260831093556 | 73 | 0 | 0.0 | 1.0 | 0.00 | 0.00 | 0.00 | 97 | 1018.3 |
| 20260831093106 | 73 | 0 | 0.0 | 1.0 | 0.00 | 0.00 | 0.00 | 97 | 1018.3 |
| 20260831092555 | 73 | 0 | 0.0 | 1.0 | 0.00 | 0.00 | 0.00 | 97 | 1018.4 |
| 20260831092056 | 73 | 0 | 0.0 | 1.0 | 0.00 | 0.00 | 0.00 | 97 | 1018.3 |
| 20260831091604 | 73 | 0 | 0.0 | 0.0 | 0.00 | 0.00 | 0.00 | 97 | 1018.2 |
| 20260831091058 | 73 | 0 | 0.0 | 0.0 | 0.00 | 0.00 | 0.00 | 97 | 1018.2 |
| 20260831090558 | 73 | 0 | 0.0 | 0.0 | 0.00 | 0.00 | 0.00 | 97 | 1018.2 |
| 20260831090104 | 73 | 0 | 0.0 | 0.0 | 0.00 | 0.00 | 0.00 | 97 | 1018.3 |
| 20260831085558 | 73 | 0 | 0.0 | 0.0 | 0.00 | 0.00 | 0.00 | 97 | 1018.3 |
| 20260831085054 | 73 | 0 | 0.0 | 0.0 | 0.00 | 0.00 | 0.00 | 97 | 1018.4 |
| 20260831084610 | 73 | 0 | 0.0 | 0.0 | 0.00 | 0.00 | 0.00 | 96 | 1018.1 |
| 20260831084058 | 73 | 0 | 0.0 | 0.0 | 0.00 | 0.00 | 0.00 | 96 | 1018.2 |
| 20260831083558 | 73 | 0 | 0.0 | 0.0 | 0.00 | 0.00 | 0.00 | 96 | 1018.3 |
| 20260831083105 | 73 | 0 | 0.0 | 0.0 | 0.00 | 0.00 | 0.00 | 96 | 1018.2 |
| 20260831082558 | 74 | 0 | 0.0 | 0.0 | 0.00 | 0.00 | 0.00 | 96 | 1018.3 |
| 20260831082056 | 74 | 0 | 0.0 | 1.0 | 0.00 | 0.00 | 0.00 | 96 | 1018.3 |
| 20260831081605 | 74 | 0 | 0.0 | 1.0 | 0.00 | 0.00 | 0.00 | 96 | 1018.2 |
| 20260831081056 | 74 | 0 | 0.0 | 1.0 | 0.00 | 0.00 | 0.00 | 96 | 1018.3 |
| 20260831080559 | 74 | 0 | 0.0 | 1.0 | 0.00 | 0.00 | 0.00 | 95 | 1018.3 |
| 20260831080106 | 74 | 0 | 0.0 | 1.0 | 0.00 | 0.00 | 0.00 | 95 | 1018.3 |
| 20260831075556 | 74 | 0 | 0.0 | 1.0 | 0.00 | 0.00 | 0.00 | 95 | 1018.4 |
| 20260831075058 | 74 | 0 | 0.0 | 1.0 | 0.00 | 0.00 | 0.00 | 95 | 1018.4 |
| 20260831074608 | 74 | 0 | 0.0 | 1.0 | 0.00 | 0.00 | 0.00 | 95 | 1018.4 |
| 20260831074059 | 74 | 0 | 0.0 | 3.0 | 0.00 | 0.00 | 0.00 | 95 | 1018.4 |
| 20260831073559 | 74 | 0 | 0.0 | 3.0 | 0.00 | 0.00 | 0.00 | 94 | 1018.3 |
| 20260831073112 | 74 | 0 | 0.0 | 3.0 | 0.00 | 0.00 | 0.00 | 94 | 1018.4 |
| 20260831072558 | 75 | 0 | 0.0 | 1.0 | 0.00 | 0.00 | 0.00 | 94 | 1018.4 |
| 20260831072058 | 75 | 0 | 0.0 | 2.0 | 0.00 | 0.00 | 0.00 | 94 | 1018.4 |
| 20260831071601 | 75 | 0 | 0.0 | 2.0 | 0.00 | 0.00 | 0.00 | 94 | 1018.4 |
| 20260831071058 | 75 | 0 | 0.0 | 2.0 | 0.00 | 0.00 | 0.00 | 94 | 1018.5 |
| 20260831070558 | 75 | 0 | 0.0 | 2.0 | 0.00 | 0.00 | 0.00 | 94 | 1018.4 |
| 20260831070113 | 75 | 0 | 0.0 | 2.0 | 0.00 | 0.00 | 0.00 | 94 | 1018.5 |
| 20260831065558 | 75 | 0 | 0.0 | 2.0 | 0.00 | 0.00 | 0.00 | 94 | 1018.5 |
| 20260831065058 | 75 | 0 | 0.0 | 2.0 | 0.00 | 0.00 | 0.00 | 94 | 1018.5 |
| 20260831064600 | 75 | 0 | 0.0 | 1.0 | 0.00 | 0.00 | 0.00 | 94 | 1018.5 |
| 20260831064059 | 75 | 0 | 0.0 | 1.0 | 0.00 | 0.00 | 0.00 | 94 | 1018.5 |
| 20260831063558 | 75 | 0 | 0.0 | 1.0 | 0.00 | 0.00 | 0.00 | 94 | 1018.7 |
| 20260831063102 | 75 | 0 | 0.0 | 1.0 | 0.00 | 0.00 | 0.00 | 94 | 1018.7 |
| 20260831062601 | 75 | 108 | 0.0 | 1.0 | 0.00 | 0.00 | 0.00 | 94 | 1018.6 |
| 20260831062058 | 75 | 0 | 0.0 | 1.0 | 0.00 | 0.00 | 0.00 | 94 | 1018.6 |
| 20260831061602 | 75 | 0 | 0.0 | 1.0 | 0.00 | 0.00 | 0.00 | 94 | 1018.5 |
| 20260831061057 | 75 | 0 | 0.0 | 1.0 | 0.00 | 0.00 | 0.00 | 94 | 1018.5 |
| 20260831060557 | 75 | 0 | 0.0 | 1.0 | 0.00 | 0.00 | 0.00 | 94 | 1018.6 |
| 20260831055558 | 75 | 0 | 0.0 | 0.0 | 0.00 | 0.00 | 0.00 | 93 | 1018.7 |
| 20260831055058 | 75 | 0 | 0.0 | 0.0 | 0.00 | 0.00 | 0.00 | 93 | 1018.8 |
| 20260831054605 | 75 | 0 | 0.0 | 0.0 | 0.00 | 0.00 | 0.00 | 93 | 1018.7 |
| 20260831054059 | 75 | 0 | 0.0 | 0.0 | 0.00 | 0.00 | 0.00 | 93 | 1018.6 |
| 20260831053602 | 76 | 0 | 0.0 | 0.0 | 0.00 | 0.00 | 0.00 | 93 | 1018.6 |
| 20260831053101 | 76 | 0 | 0.0 | 0.0 | 0.00 | 0.00 | 0.00 | 93 | 1018.5 |
| 20260831052600 | 76 | 0 | 0.0 | 0.0 | 0.00 | 0.00 | 0.00 | 92 | 1018.6 |
| 20260831052058 | 76 | 0 | 0.0 | 0.0 | 0.00 | 0.00 | 0.00 | 92 | 1018.5 |
| 20260831051604 | 76 | 0 | 0.0 | 0.0 | 0.00 | 0.00 | 0.00 | 92 | 1018.5 |
| 20260831051059 | 76 | 0 | 0.0 | 0.0 | 0.00 | 0.00 | 0.00 | 92 | 1018.6 |
| 20260831050558 | 76 | 0 | 0.0 | 0.0 | 0.00 | 0.00 | 0.00 | 92 | 1018.6 |
| 20260831050106 | 76 | 0 | 0.0 | 1.0 | 0.00 | 0.00 | 0.00 | 91 | 1018.6 |
| 20260831045558 | 76 | 0 | 0.0 | 1.0 | 0.00 | 0.00 | 0.00 | 91 | 1018.6 |
| 20260831045056 | 77 | 0 | 0.0 | 0.0 | 0.00 | 0.00 | 0.00 | 91 | 1018.6 |
| 20260831044610 | 77 | 0 | 0.0 | 0.0 | 0.00 | 0.00 | 0.00 | 90 | 1018.6 |
| 20260831044057 | 77 | 0 | 0.0 | 1.0 | 0.00 | 0.00 | 0.00 | 91 | 1018.7 |
| 20260831043555 | 77 | 0 | 0.0 | 1.0 | 0.00 | 0.00 | 0.00 | 91 | 1018.7 |
| 20260831043106 | 77 | 0 | 0.0 | 0.0 | 0.00 | 0.00 | 0.00 | 91 | 1018.7 |
| 20260831042626 | 77 | 0 | 0.0 | 0.0 | 0.00 | 0.00 | 0.00 | 90 | 1018.8 |
| 20260831042058 | 77 | 0 | 0.0 | 0.0 | 0.00 | 0.00 | 0.00 | 90 | 1018.7 |
| 20260831041605 | 77 | 0 | 0.0 | 0.0 | 0.00 | 0.00 | 0.00 | 91 | 1018.7 |
| 20260831041058 | 77 | 0 | 0.0 | 0.0 | 0.00 | 0.00 | 0.00 | 90 | 1018.7 |
| 20260831040558 | 77 | 0 | 0.0 | 0.0 | 0.00 | 0.00 | 0.00 | 89 | 1018.8 |
| 20260831040103 | 78 | 0 | 0.0 | 0.0 | 0.00 | 0.00 | 0.00 | 89 | 1018.8 |
| 20260831035555 | 78 | 0 | 0.0 | 0.0 | 0.00 | 0.00 | 0.00 | 89 | 1018.8 |
| 20260831035058 | 78 | 0 | 0.0 | 1.0 | 0.00 | 0.00 | 0.00 | 88 | 1018.9 |
| 20260831034607 | 78 | 0 | 0.0 | 1.0 | 0.00 | 0.00 | 0.00 | 92 | 1018.8 |
| 20260831034058 | 78 | 116 | 0.0 | 1.0 | 0.00 | 0.00 | 0.00 | 88 | 1018.9 |
| 20260831033558 | 78 | 0 | 0.0 | 1.0 | 0.00 | 0.00 | 0.00 | 88 | 1018.7 |
| 20260831033100 | 78 | 0 | 0.0 | 1.0 | 0.00 | 0.00 | 0.00 | 91 | 1018.9 |
| 20260831032558 | 78 | 114 | 0.0 | 1.0 | 0.00 | 0.00 | 0.00 | 91 | 1018.8 |
| 20260831032055 | 78 | 0 | 0.0 | 1.0 | 0.00 | 0.00 | 0.00 | 89 | 1018.9 |
| 20260831031605 | 78 | 248 | 0.0 | 0.0 | 0.00 | 0.00 | 0.00 | 90 | 1018.9 |
| 20260831031102 | 78 | 0 | 0.0 | 0.0 | 0.00 | 0.00 | 0.00 | 90 | 1018.9 |
| 20260831030602 | 78 | 0 | 0.0 | 1.0 | 0.00 | 0.00 | 0.00 | 90 | 1018.9 |
| 20260831030108 | 78 | 0 | 0.0 | 1.0 | 0.00 | 0.00 | 0.00 | 90 | 1018.8 |
| 20260831025558 | 78 | 0 | 0.0 | 1.0 | 0.00 | 0.00 | 0.00 | 92 | 1018.8 |
| 20260831025058 | 78 | 0 | 0.0 | 0.0 | 0.00 | 0.00 | 0.00 | 90 | 1018.7 |
| 20260831024626 | 78 | 0 | 0.0 | 0.0 | 0.00 | 0.00 | 0.00 | 90 | 1018.7 |
| 20260831024058 | 78 | 0 | 0.0 | 0.0 | 0.00 | 0.00 | 0.00 | 91 | 1018.7 |
| 20260831023557 | 78 | 0 | 0.0 | 0.0 | 0.00 | 0.00 | 0.00 | 91 | 1018.7 |
| 20260831023105 | 78 | 0 | 0.0 | 0.0 | 0.00 | 0.00 | 0.00 | 91 | 1018.7 |
| 20260831022558 | 78 | 0 | 0.0 | 0.0 | 0.00 | 0.00 | 0.00 | 91 | 1018.8 |
| 20260831022058 | 78 | 0 | 0.0 | 0.0 | 0.00 | 0.00 | 0.00 | 91 | 1018.6 |
| 20260831021604 | 78 | 0 | 0.0 | 0.0 | 0.00 | 0.00 | 0.00 | 90 | 1018.7 |
| 20260831021059 | 78 | 0 | 0.0 | 0.0 | 0.00 | 0.00 | 0.00 | 90 | 1018.8 |
| 20260831020559 | 78 | 0 | 0.0 | 0.0 | 0.00 | 0.00 | 0.00 | 91 | 1018.6 |
| 20260831020110 | 78 | 0 | 0.0 | 0.0 | 0.00 | 0.00 | 0.00 | 94 | 1018.6 |
| 20260831015558 | 79 | 0 | 0.0 | 0.0 | 0.00 | 0.00 | 0.00 | 91 | 1018.6 |
| 20260831015058 | 78 | 0 | 0.0 | 0.0 | 0.00 | 0.00 | 0.00 | 91 | 1018.5 |
| 20260831014622 | 79 | 0 | 0.0 | 1.0 | 0.00 | 0.00 | 0.00 | 91 | 1018.6 |
| 20260831014058 | 79 | 0 | 0.0 | 1.0 | 0.00 | 0.00 | 0.00 | 91 | 1018.5 |
| 20260831013558 | 79 | 0 | 0.0 | 0.0 | 0.00 | 0.00 | 0.00 | 91 | 1018.5 |
| 20260831013106 | 79 | 0 | 0.0 | 0.0 | 0.00 | 0.00 | 0.00 | 91 | 1018.5 |
| 20260831012559 | 79 | 0 | 0.0 | 0.0 | 0.00 | 0.00 | 0.00 | 90 | 1018.6 |
| 20260831012058 | 80 | 0 | 0.0 | 0.0 | 0.00 | 0.00 | 0.00 | 90 | 1018.5 |
| 20260831011615 | 80 | 0 | 0.0 | 0.0 | 0.00 | 0.00 | 0.00 | 89 | 1018.5 |
| 20260831011058 | 80 | 0 | 0.0 | 0.0 | 0.00 | 0.00 | 0.00 | 88 | 1018.5 |
| 20260831010558 | 80 | 0 | 0.0 | 0.0 | 0.00 | 0.00 | 0.00 | 88 | 1018.5 |
| 20260831010105 | 80 | 0 | 0.0 | 0.0 | 0.00 | 0.00 | 0.00 | 87 | 1018.4 |
| 20260831005558 | 80 | 0 | 0.0 | 0.0 | 0.00 | 0.00 | 0.00 | 87 | 1018.4 |
| 20260831005058 | 81 | 0 | 0.0 | 0.0 | 0.00 | 0.00 | 0.00 | 86 | 1018.4 |
| 20260831004606 | 81 | 0 | 0.0 | 0.0 | 0.00 | 0.00 | 0.00 | 85 | 1018.4 |
| 20260831004101 | 81 | 0 | 0.0 | 0.0 | 0.00 | 0.00 | 0.00 | 85 | 1018.2 |
| 20260831003559 | 82 | 0 | 0.0 | 0.0 | 0.00 | 0.00 | 0.00 | 85 | 1018.1 |
| 20260831003104 | 82 | 0 | 0.0 | 0.0 | 0.00 | 0.00 | 0.00 | 84 | 1018.1 |
| 20260831002602 | 82 | 0 | 0.0 | 1.0 | 0.00 | 0.00 | 0.00 | 84 | 1018.1 |
| 20260831002058 | 83 | 0 | 0.0 | 1.0 | 0.00 | 0.00 | 0.00 | 83 | 1018.1 |
| 20260831001606 | 83 | 0 | 0.0 | 1.0 | 0.00 | 0.00 | 0.00 | 82 | 1018.1 |
| 20260831001103 | 83 | 0 | 0.0 | 0.0 | 0.00 | 0.00 | 0.00 | 81 | 1017.9 |
| 20260831000558 | 84 | 0 | 0.0 | 0.0 | 0.00 | 0.00 | 0.00 | 80 | 1017.9 |
| 20260831000108 | 85 | 0 | 0.0 | 0.0 | 0.00 | 0.00 | 0.00 | 79 | 1017.9 |
| 20260830235559 | 85 | 0 | 0.0 | 0.0 | 0.00 | 0.00 | 0.00 | 80 | 1017.9 |
| 20260830235059 | 86 | 0 | 0.0 | 0.0 | 0.00 | 0.00 | 0.00 | 75 | 1017.8 |
| 20260830234606 | 86 | 0 | 0.0 | 0.0 | 0.00 | 0.00 | 0.00 | 75 | 1017.6 |
| 20260830234059 | 87 | 0 | 0.0 | 1.0 | 0.00 | 0.00 | 0.00 | 77 | 1017.6 |
| 20260830233558 | 87 | 0 | 0.0 | 2.0 | 0.00 | 0.00 | 0.00 | 77 | 1017.5 |
| 20260830233107 | 87 | 0 | 0.0 | 2.0 | 0.00 | 0.00 | 0.00 | 72 | 1017.5 |
| 20260830232600 | 87 | 0 | 0.0 | 2.0 | 0.00 | 0.00 | 0.00 | 71 | 1017.4 |
| 20260830232059 | 88 | 143 | 1.0 | 3.0 | 0.00 | 0.00 | 0.00 | 69 | 1017.4 |
| 20260830231611 | 88 | 143 | 0.0 | 3.0 | 0.00 | 0.00 | 0.00 | 69 | 1017.4 |
| 20260830231057 | 89 | 144 | 2.0 | 3.0 | 0.00 | 0.00 | 0.00 | 69 | 1017.4 |
| 20260830230557 | 89 | 134 | 1.0 | 3.0 | 0.00 | 0.00 | 0.00 | 72 | 1017.4 |
| 20260830230111 | 89 | 146 | 1.0 | 2.0 | 0.00 | 0.00 | 0.00 | 71 | 1017.4 |
| 20260830225558 | 89 | 141 | 0.0 | 2.0 | 0.00 | 0.00 | 0.00 | 71 | 1017.4 |
| 20260830225058 | 88 | 0 | 0.0 | 1.0 | 0.00 | 0.00 | 0.00 | 73 | 1017.4 |
| 20260830224635 | 88 | 0 | 0.0 | 3.0 | 0.00 | 0.00 | 0.00 | 74 | 1017.4 |
| 20260830224058 | 88 | 0 | 0.0 | 3.0 | 0.00 | 0.00 | 0.00 | 69 | 1017.4 |
| 20260830223558 | 88 | 143 | 1.0 | 4.0 | 0.00 | 0.00 | 0.00 | 72 | 1017.5 |
| 20260830223102 | 89 | 0 | 1.0 | 4.0 | 0.00 | 0.00 | 0.00 | 69 | 1017.4 |
| 20260830222602 | 89 | 158 | 2.0 | 4.0 | 0.00 | 0.00 | 0.00 | 72 | 1017.4 |
| 20260830222058 | 89 | 151 | 1.0 | 4.0 | 0.00 | 0.00 | 0.00 | 71 | 1017.5 |
| 20260830221605 | 89 | 150 | 0.0 | 2.0 | 0.00 | 0.00 | 0.00 | 70 | 1017.5 |
| 20260830221059 | 88 | 140 | 0.0 | 2.0 | 0.00 | 0.00 | 0.00 | 76 | 1017.5 |
| 20260830220600 | 87 | 0 | 0.0 | 2.0 | 0.00 | 0.00 | 0.00 | 74 | 1017.5 |
| 20260830220106 | 87 | 0 | 0.0 | 2.0 | 0.00 | 0.00 | 0.00 | 75 | 1017.8 |
| 20260830215558 | 87 | 0 | 0.0 | 2.0 | 0.00 | 0.00 | 0.00 | 72 | 1017.7 |
| 20260830215058 | 87 | 0 | 0.0 | 2.0 | 0.00 | 0.00 | 0.00 | 74 | 1017.7 |
| 20260830214604 | 87 | 127 | 0.0 | 0.0 | 0.00 | 0.00 | 0.00 | 73 | 1017.7 |
| 20260830214057 | 88 | 0 | 0.0 | 3.0 | 0.00 | 0.00 | 0.00 | 72 | 1017.6 |
| 20260830213558 | 88 | 0 | 0.0 | 3.0 | 0.00 | 0.00 | 0.00 | 71 | 1017.6 |
| 20260830213103 | 88 | 134 | 0.0 | 2.0 | 0.00 | 0.00 | 0.00 | 73 | 1017.8 |
| 20260830212559 | 88 | 0 | 0.0 | 3.0 | 0.00 | 0.00 | 0.00 | 71 | 1017.8 |
| 20260830212059 | 88 | 137 | 0.0 | 5.0 | 0.00 | 0.00 | 0.00 | 71 | 1017.8 |
| 20260830211601 | 88 | 132 | 1.0 | 5.0 | 0.00 | 0.00 | 0.00 | 67 | 1017.8 |
| 20260830211101 | 89 | 137 | 0.0 | 7.0 | 0.00 | 0.00 | 0.00 | 69 | 1017.8 |
| 20260830210559 | 89 | 124 | 2.0 | 9.0 | 0.00 | 0.00 | 0.00 | 65 | 1017.9 |
| 20260830210105 | 89 | 153 | 2.0 | 9.0 | 0.00 | 0.00 | 0.00 | 67 | 1017.8 |
| 20260830205558 | 89 | 135 | 2.0 | 9.0 | 0.00 | 0.00 | 0.00 | 68 | 1017.8 |
| 20260830205101 | 89 | 98 | 2.0 | 5.0 | 0.00 | 0.00 | 0.00 | 66 | 1017.8 |
| 20260830204606 | 89 | 76 | 1.0 | 5.0 | 0.00 | 0.00 | 0.00 | 71 | 1017.9 |
| 20260830204058 | 88 | 0 | 0.0 | 4.0 | 0.00 | 0.00 | 0.00 | 73 | 1018.0 |
| 20260830203558 | 88 | 145 | 1.0 | 4.0 | 0.00 | 0.00 | 0.00 | 68 | 1018.0 |
| 20260830203107 | 88 | 141 | 1.0 | 4.0 | 0.00 | 0.00 | 0.00 | 69 | 1018.1 |
| 20260830202558 | 88 | 0 | 2.0 | 4.0 | 0.00 | 0.00 | 0.00 | 73 | 1018.1 |
| 20260830202059 | 88 | 129 | 0.0 | 4.0 | 0.00 | 0.00 | 0.00 | 71 | 1018.1 |
| 20260830201602 | 88 | 146 | 1.0 | 4.0 | 0.00 | 0.00 | 0.00 | 69 | 1018.1 |
| 20260830201058 | 88 | 130 | 2.0 | 5.0 | 0.00 | 0.00 | 0.00 | 68 | 1018.3 |
| 20260830200559 | 88 | 128 | 2.0 | 5.0 | 0.00 | 0.00 | 0.00 | 71 | 1018.4 |
| 20260830200100 | 88 | 162 | 1.0 | 11.0 | 0.00 | 0.00 | 0.00 | 71 | 1018.3 |
| 20260830195602 | 88 | 141 | 3.0 | 11.0 | 0.00 | 0.00 | 0.00 | 70 | 1018.4 |
| 20260830195102 | 89 | 153 | 4.0 | 10.0 | 0.00 | 0.00 | 0.00 | 65 | 1018.5 |
| 20260830194610 | 90 | 134 | 4.0 | 10.0 | 0.00 | 0.00 | 0.00 | 64 | 1018.5 |
| 20260830194100 | 90 | 146 | 0.0 | 9.0 | 0.00 | 0.00 | 0.00 | 64 | 1018.4 |
| 20260830193557 | 90 | 136 | 4.0 | 9.0 | 0.00 | 0.00 | 0.00 | 62 | 1018.4 |
| 20260830193108 | 91 | 139 | 2.0 | 9.0 | 0.00 | 0.00 | 0.00 | 61 | 1018.5 |
| 20260830192558 | 91 | 86 | 2.0 | 5.0 | 0.00 | 0.00 | 0.00 | 62 | 1018.6 |
| 20260830192101 | 91 | 149 | 1.0 | 5.0 | 0.00 | 0.00 | 0.00 | 64 | 1018.6 |
| 20260830191601 | 91 | 65 | 1.0 | 8.0 | 0.00 | 0.00 | 0.00 | 63 | 1018.7 |
| 20260830191058 | 91 | 136 | 3.0 | 8.0 | 0.00 | 0.00 | 0.00 | 63 | 1018.8 |
| 20260830190558 | 92 | 139 | 4.0 | 9.0 | 0.00 | 0.00 | 0.00 | 60 | 1018.8 |
| 20260830185558 | 91 | 212 | 3.0 | 9.0 | 0.00 | 0.00 | 0.00 | 65 | 1018.9 |
| 20260830185101 | 91 | 118 | 2.0 | 9.0 | 0.00 | 0.00 | 0.00 | 66 | 1018.9 |
| 20260830184612 | 91 | 149 | 3.0 | 9.0 | 0.00 | 0.00 | 0.00 | 66 | 1019.1 |
| 20260830184057 | 91 | 167 | 2.0 | 5.0 | 0.00 | 0.00 | 0.00 | 63 | 1019.1 |
| 20260830183558 | 91 | 205 | 2.0 | 8.0 | 0.00 | 0.00 | 0.00 | 66 | 1019.2 |
| 20260830183104 | 90 | 104 | 2.0 | 8.0 | 0.00 | 0.00 | 0.00 | 65 | 1019.3 |
| 20260830182559 | 90 | 149 | 2.0 | 7.0 | 0.00 | 0.00 | 0.00 | 68 | 1019.3 |
| 20260830182059 | 90 | 136 | 2.0 | 8.0 | 0.00 | 0.00 | 0.00 | 63 | 1019.4 |
| 20260830181604 | 90 | 184 | 2.0 | 9.0 | 0.00 | 0.00 | 0.00 | 66 | 1019.5 |
| 20260830181058 | 90 | 77 | 2.0 | 9.0 | 0.00 | 0.00 | 0.00 | 61 | 1019.5 |
| 20260830180558 | 90 | 116 | 3.0 | 9.0 | 0.00 | 0.00 | 0.00 | 64 | 1019.5 |
| 20260830180101 | 90 | 93 | 1.0 | 9.0 | 0.00 | 0.00 | 0.00 | 67 | 1019.5 |
| 20260830175558 | 89 | 148 | 3.0 | 9.0 | 0.00 | 0.00 | 0.00 | 67 | 1019.5 |
| 20260830175102 | 89 | 149 | 4.0 | 8.0 | 0.00 | 0.00 | 0.00 | 66 | 1019.5 |
| 20260830174606 | 88 | 150 | 2.0 | 7.0 | 0.00 | 0.00 | 0.00 | 70 | 1019.5 |
| 20260830174058 | 89 | 126 | 2.0 | 6.0 | 0.00 | 0.00 | 0.00 | 66 | 1019.6 |
| 20260830173559 | 89 | 122 | 3.0 | 8.0 | 0.00 | 0.00 | 0.00 | 67 | 1019.8 |
| 20260830173105 | 89 | 147 | 4.0 | 8.0 | 0.00 | 0.00 | 0.00 | 66 | 1019.9 |
| 20260830172601 | 89 | 143 | 1.0 | 5.0 | 0.00 | 0.00 | 0.00 | 69 | 1020.0 |
| 20260830172058 | 88 | 89 | 1.0 | 4.0 | 0.00 | 0.00 | 0.00 | 68 | 1020.0 |
| 20260830171611 | 88 | 115 | 0.0 | 7.0 | 0.00 | 0.00 | 0.00 | 73 | 1020.0 |
| 20260830171058 | 88 | 72 | 2.0 | 7.0 | 0.00 | 0.00 | 0.00 | 72 | 1020.1 |
| 20260830170558 | 88 | 151 | 3.0 | 6.0 | 0.00 | 0.00 | 0.00 | 72 | 1020.2 |
| 20260830170109 | 87 | 99 | 3.0 | 8.0 | 0.00 | 0.00 | 0.00 | 70 | 1020.3 |
| 20260830165558 | 87 | 84 | 2.0 | 8.0 | 0.00 | 0.00 | 0.00 | 73 | 1020.2 |
| 20260830165058 | 87 | 143 | 3.0 | 8.0 | 0.00 | 0.00 | 0.00 | 75 | 1020.3 |
| 20260830164611 | 86 | 162 | 2.0 | 6.0 | 0.00 | 0.00 | 0.00 | 75 | 1020.3 |
| 20260830164100 | 86 | 68 | 1.0 | 8.0 | 0.00 | 0.00 | 0.00 | 74 | 1020.5 |
| 20260830163558 | 85 | 84 | 3.0 | 8.0 | 0.00 | 0.00 | 0.00 | 75 | 1020.7 |
| 20260830163109 | 85 | 78 | 1.0 | 7.0 | 0.00 | 0.00 | 0.00 | 75 | 1020.5 |
| 20260830162559 | 85 | 0 | 2.0 | 6.0 | 0.00 | 0.00 | 0.00 | 80 | 1020.8 |
| 20260830162057 | 85 | 127 | 2.0 | 7.0 | 0.00 | 0.00 | 0.00 | 78 | 1020.8 |
| 20260830161614 | 86 | 96 | 3.0 | 7.0 | 0.00 | 0.00 | 0.00 | 77 | 1020.7 |
| 20260830161058 | 85 | 150 | 0.0 | 6.0 | 0.00 | 0.00 | 0.00 | 78 | 1020.6 |
| 20260830160600 | 85 | 0 | 2.0 | 6.0 | 0.00 | 0.00 | 0.00 | 77 | 1020.7 |
| 20260830155600 | 84 | 0 | 1.0 | 9.0 | 0.00 | 0.00 | 0.00 | 77 | 1020.8 |
| 20260830155058 | 84 | 127 | 2.0 | 9.0 | 0.00 | 0.00 | 0.00 | 76 | 1020.7 |
| 20260830154611 | 84 | 81 | 1.0 | 5.0 | 0.00 | 0.00 | 0.00 | 79 | 1020.7 |
| 20260830154103 | 83 | 104 | 2.0 | 7.0 | 0.00 | 0.00 | 0.00 | 78 | 1020.7 |
| 20260830153602 | 83 | 66 | 2.0 | 7.0 | 0.00 | 0.00 | 0.00 | 78 | 1020.8 |
| 20260830153107 | 83 | 0 | 0.0 | 7.0 | 0.00 | 0.00 | 0.00 | 84 | 1020.8 |
| 20260830152558 | 82 | 54 | 2.0 | 7.0 | 0.00 | 0.00 | 0.00 | 80 | 1020.7 |
| 20260830152058 | 83 | 96 | 0.0 | 5.0 | 0.00 | 0.00 | 0.00 | 82 | 1020.7 |
| 20260830151608 | 82 | 0 | 1.0 | 5.0 | 0.00 | 0.00 | 0.00 | 85 | 1020.6 |
| 20260830151059 | 82 | 91 | 1.0 | 5.0 | 0.00 | 0.00 | 0.00 | 84 | 1020.4 |
| 20260830150559 | 82 | 0 | 0.0 | 4.0 | 0.00 | 0.00 | 0.00 | 86 | 1020.5 |
| 20260830145558 | 81 | 0 | 1.0 | 5.0 | 0.00 | 0.00 | 0.00 | 84 | 1020.4 |
| 20260830145058 | 81 | 134 | 1.0 | 4.0 | 0.00 | 0.00 | 0.00 | 88 | 1020.5 |
| 20260830144603 | 80 | 82 | 1.0 | 4.0 | 0.00 | 0.00 | 0.00 | 84 | 1020.4 |
| 20260830144058 | 80 | 0 | 0.0 | 4.0 | 0.00 | 0.00 | 0.00 | 89 | 1020.5 |
| 20260830143558 | 80 | 0 | 1.0 | 3.0 | 0.00 | 0.00 | 0.00 | 87 | 1020.5 |
| 20260830143115 | 80 | 139 | 0.0 | 3.0 | 0.00 | 0.00 | 0.00 | 87 | 1020.6 |
| 20260830142558 | 80 | 0 | 0.0 | 1.0 | 0.00 | 0.00 | 0.00 | 89 | 1020.7 |
| 20260830142100 | 79 | 157 | 0.0 | 1.0 | 0.00 | 0.00 | 0.00 | 88 | 1020.7 |
| 20260830141601 | 79 | 0 | 0.0 | 3.0 | 0.00 | 0.00 | 0.00 | 89 | 1020.7 |
| 20260830141102 | 79 | 0 | 0.0 | 3.0 | 0.00 | 0.00 | 0.00 | 91 | 1020.6 |
| 20260830140600 | 78 | 141 | 0.0 | 3.0 | 0.00 | 0.00 | 0.00 | 91 | 1020.7 |
| 20260830140101 | 77 | 0 | 0.0 | 4.0 | 0.00 | 0.00 | 0.00 | 93 | 1020.7 |
| 20260830135558 | 77 | 84 | 1.0 | 5.0 | 0.00 | 0.00 | 0.00 | 93 | 1020.7 |
| 20260830135058 | 77 | 131 | 1.0 | 5.0 | 0.00 | 0.00 | 0.00 | 93 | 1020.7 |